Theta_e
302 302 301 300 299 300 300 300 299 301 303 305 310 311 312 313 313 311 311 312 311 310 311 311 312 313 313 314 315 317 317 316 317 319 322 326 328 331 333 334 335 337 337 335
300 302 301 299 301 300 299 299 302 304 303 309 311 312 311 310 309 309 309 309 308 309 310 310 310 311 312 312 313 314 314 314 315 316 318 319 322 325 328 332 334 335 334 332
297 299 299 296 300 300 301 302 304 301 306 309 309 309 310 309 308 307 307 307 307 308 309 309 310 311 310 311 312 312 313 313 314 314 314 316 317 318 320 324 326 326 328 329
297 299 291 300 306 304 303 303 305 306 307 309 310 311 312 311 308 306 305 306 307 308 309 310 311 311 312 312 312 311 311 311 312 313 313 314 316 316 317 318 320 320 323 326
296 295 297 300 303 303 302 301 307 307 308 308 309 310 310 311 309 306 306 307 308 309 310 311 311 311 311 310 311 311 311 311 313 313 313 314 314 315 315 316 316 318 320 323
294 292 290 300 307 309 308 299 309 310 309 307 308 303 307 312 310 306 307 308 308 308 309 310 311 312 310 310 310 310 312 312 313 314 314 314 316 316 316 316 316 315 316 320
295 294 295 301 307 309 296 300 311 312 312 309 306 308 310 311 306 306 307 306 308 309 309 311 313 313 311 311 311 313 313 313 313 314 311 312 313 312 311 312 314 312 310 312
295 294 291 306 305 301 308 309 314 313 313 311 311 310 309 306 306 306 306 307 309 309 310 312 313 313 312 312 315 315 313 311 312 311 311 311 310 310 311 311 310 310 309 308
300 300 303 308 307 310 310 312 313 315 314 313 311 310 307 306 306 306 307 308 309 309 310 312 313 314 313 315 316 314 312 310 310 311 311 312 310 310 310 310 309 308 308 307
302 305 307 310 313 313 313 313 315 316 314 313 310 308 306 306 306 307 308 309 310 309 309 310 313 314 315 316 316 314 310 308 309 311 311 310 312 312 311 310 309 309 308 307
302 305 308 311 313 315 314 314 314 314 313 312 310 306 306 306 307 308 309 309 309 309 309 311 313 314 316 317 317 315 313 309 309 311 310 310 310 311 311 313 313 310 310 310
302 311 311 311 312 316 314 313 314 313 310 310 308 307 306 307 308 308 308 310 309 310 311 312 314 314 316 317 317 314 314 310 310 311 310 309 309 309 313 310 307 304 304 307
310 310 312 312 314 314 315 315 314 313 311 308 308 308 307 307 309 308 308 309 310 310 311 312 313 314 317 318 318 316 315 316 314 312 312 308 308 308 306 313 307 302 300 300
311 312 310 312 312 315 314 315 313 313 311 310 309 308 308 307 309 308 309 310 310 311 311 312 313 314 318 319 318 317 316 311 314 315 315 310 308 307 308 306 309 311 309 303
313 313 312 314 315 315 315 314 312 312 311 309 309 308 307 307 308 309 311 311 311 312 312 314 315 316 320 319 317 316 315 314 315 316 314 311 310 309 308 307 307 309 311 309
314 313 312 312 312 314 314 313 313 313 312 311 309 309 309 309 309 310 311 312 312 312 314 315 316 319 320 319 316 314 315 314 313 314 314 313 313 310 309 309 308 308 309 309
311 311 312 311 313 313 314 315 315 315 313 311 311 312 312 311 311 312 315 316 316 315 315 316 316 319 319 319 313 313 313 314 313 313 314 314 313 312 312 311 309 310 309 308
315 314 314 313 312 313 314 315 315 316 314 315 315 314 313 313 314 315 316 317 316 315 317 319 319 318 320 317 315 314 313 314 314 312 311 310 311 313 312 312 311 311 313 312
314 313 313 314 314 314 315 315 316 317 317 317 316 315 316 316 316 316 316 313 313 314 316 319 318 318 320 319 316 315 312 313 314 313 312 310 311 310 310 310 309 312 312 310
314 315 314 312 313 315 315 316 316 316 317 316 316 315 315 315 317 316 315 312 314 315 318 318 319 319 320 320 317 315 313 313 314 314 313 312 312 312 312 306 310 312 312 311
313 313 313 314 314 316 315 316 314 314 314 313 313 314 315 316 316 315 313 312 319 320 319 316 318 318 319 317 317 316 314 314 314 314 313 312 312 312 312 312 312 312 313 313
313 313 313 312 312 313 314 314 314 313 314 314 314 315 314 315 316 316 317 315 317 312 315 318 319 317 317 314 318 317 315 314 314 314 314 313 312 312 312 312 312 312 312 312
313 314 313 313 313 313 314 314 315 315 315 316 316 317 316 315 315 313 314 323 319 315 317 318 307 310 311 315 318 318 316 314 314 314 314 313 312 311 311 310 310 311 310 310
314 314 314 314 313 313 314 317 316 317 317 318 318 318 317 316 318 320 319 313 308 309 316 316 311 308 306 316 316 315 315 315 315 315 314 301 311 310 310 310 309 310 310 308
314 315 315 314 314 314 317 318 318 318 318 319 320 321 321 321 317 320 320 320 311 311 319 313 308 307 315 316 314 314 314 315 315 314 311 311 311 310 310 310 310 310 310 310
315 314 315 317 315 315 315 315 315 317 317 318 318 319 319 320 320 317 319 314 319 313 316 316 315 314 314 314 313 313 314 314 311 311 309 312 312 311 311 311 311 311 311 311
316 307 316 315 316 317 317 316 316 317 317 318 315 317 319 318 317 314 311 318 318 316 316 315 314 311 312 313 313 313 313 312 306 311 311 311 312 312 312 311 312 312 312 311
Wind_Speed
7 5 5 6 4 2 4 1 6 7 16 16 13 13 10 8 8 8 9 10 10 9 8 8 9 9 9 9 11 13 14 15 16 17 17 16 16 15 15 16 15 14 13 12
5 6 4 5 5 3 3 4 4 12 12 8 10 9 8 6 6 7 7 9 10 10 12 12 14 14 15 17 18 19 19 19 18 19 18 18 17 17 17 16 15 16 15 14
4 4 2 5 4 4 2 2 7 9 7 15 12 9 7 6 5 6 7 8 9 10 11 11 13 14 16 17 18 18 19 19 20 19 20 19 20 19 19 18 17 18 18 17
4 2 5 5 5 6 4 2 3 9 15 13 10 5 5 3 4 4 5 7 8 7 8 9 11 13 14 15 16 17 18 18 18 18 19 19 19 19 19 18 18 18 18 18
3 2 3 1 5 5 2 3 4 12 13 10 6 5 5 6 2 2 5 5 5 6 7 8 10 11 12 13 14 15 16 18 19 19 20 20 20 20 19 18 18 18 18 19
4 4 5 2 8 5 3 3 12 10 12 11 9 5 3 8 5 4 5 4 3 5 7 8 9 9 11 12 13 15 16 18 18 19 20 21 21 21 19 20 19 16 19 19
3 1 2 3 6 6 4 3 16 14 12 12 7 3 6 6 3 3 3 3 7 8 8 8 8 8 10 11 13 14 15 15 16 18 20 21 22 21 21 19 21 19 18 18
2 2 3 6 7 5 2 2 12 13 12 11 6 6 5 5 5 6 5 5 7 7 8 9 9 9 12 12 12 12 13 12 15 16 16 16 21 20 21 20 20 19 17 16
4 1 2 3 2 2 2 3 5 11 10 9 8 6 5 5 5 4 4 5 6 7 11 12 12 12 14 15 15 14 15 15 16 18 18 18 19 18 16 17 16 16 14 14
4 4 2 3 2 2 4 2 4 7 10 9 7 6 4 5 5 5 5 6 6 8 11 15 13 14 15 17 16 16 15 15 15 17 20 20 15 13 14 14 15 14 13 14
1 2 4 8 8 5 6 4 7 7 8 9 7 5 4 5 6 6 6 7 7 9 11 15 14 15 16 16 16 17 16 14 13 15 18 18 17 15 14 16 16 13 13 13
1 5 1 3 2 7 9 9 8 9 8 7 8 6 6 6 6 6 8 7 9 11 12 15 15 16 17 16 14 14 16 10 10 13 12 15 16 17 22 21 20 20 26 18
1 0 3 1 2 2 8 8 9 10 8 10 8 6 6 5 5 6 8 10 11 13 14 14 15 15 16 15 14 15 13 12 11 12 9 13 17 18 19 17 11 9 14 18
4 5 3 3 1 2 3 6 9 7 6 5 5 5 6 7 8 8 10 11 11 12 13 12 13 15 14 14 12 13 13 16 10 8 8 8 13 16 16 17 14 13 12 11
8 4 3 4 3 3 3 6 8 8 6 6 6 6 6 8 10 10 11 10 11 11 12 11 12 14 12 11 11 11 10 10 9 9 8 5 7 11 12 15 16 14 13 17
7 7 5 2 2 3 4 6 7 7 7 6 8 9 9 10 10 11 12 9 9 10 12 12 13 12 11 10 11 9 9 14 11 8 8 6 5 6 12 11 11 15 16 17
9 6 6 5 5 5 7 6 7 6 6 8 9 8 8 9 9 11 11 8 8 11 11 11 13 12 10 9 8 7 8 9 10 6 8 7 6 5 6 9 9 7 9 13
3 2 5 4 5 5 5 5 6 7 8 6 6 7 8 8 9 10 11 9 10 11 11 9 8 10 10 8 7 8 8 9 8 7 6 7 4 6 6 7 7 7 6 6
6 5 4 5 4 4 4 5 5 4 5 5 6 8 7 9 10 10 9 9 10 9 11 9 9 11 10 10 8 7 7 9 8 7 5 7 6 6 3 4 7 6 6 7
5 6 5 5 4 5 5 3 2 4 4 5 6 7 8 9 8 8 7 10 11 10 10 11 10 10 10 10 9 8 7 8 8 7 6 6 6 6 6 5 4 4 4 4
5 6 6 5 5 4 4 3 4 5 4 4 6 8 8 9 8 8 9 8 12 9 8 9 8 8 7 7 7 8 8 7 8 7 7 6 6 7 8 8 7 7 7 7
4 6 5 4 4 4 4 4 4 5 6 6 7 8 9 11 10 9 10 11 9 8 7 7 7 7 8 11 8 8 7 7 7 6 6 6 6 7 7 7 8 7 6 6
5 5 4 4 3 3 4 5 6 7 8 8 9 9 9 9 8 8 9 7 7 7 6 9 9 9 10 9 8 9 8 7 5 5 5 5 5 5 5 5 5 5 6 6
6 5 4 3 3 4 6 6 6 7 9 9 10 11 9 8 8 7 9 11 11 10 9 11 10 11 9 5 6 6 5 4 3 2 3 3 5 5 5 5 4 4 4 3
5 4 4 4 5 6 7 6 7 8 9 9 11 10 9 7 8 8 7 7 8 7 8 7 6 7 5 6 5 5 3 2 2 2 3 4 4 4 3 4 4 5 5 5
6 5 4 6 6 5 5 5 7 8 7 7 6 3 3 3 5 5 6 6 7 5 5 6 6 7 7 6 6 5 4 3 4 4 4 3 4 4 4 5 5 5 5 6
4 4 4 4 5 6 6 7 7 8 5 5 6 5 4 4 4 5 5 5 5 5 5 5 6 6 6 5 5 5 5 5 5 6 6 6 6 6 6 6 7 8 8 8
Wind_Direction
74 83 90 83 49 335 229 253 245 152 174 167 154 141 122 111 96 77 59 46 35 27 21 16 11 5 356 349 343 334 328 327 325 320 315 311 309 305 295 290 284 279 277 283
84 63 115 96 56 82 67 140 70 152 147 153 142 135 135 113 90 67 49 36 24 21 19 17 13 5 358 356 352 348 341 335 329 324 319 313 307 303 301 296 289 284 280 281
132 32 156 218 3 304 154 204 161 175 159 153 156 158 153 135 88 54 39 32 29 28 24 16 7 358 352 345 339 337 333 329 323 320 316 314 311 306 300 295 293 285 281 278
100 126 224 26 320 240 112 100 180 117 145 156 158 155 149 127 86 47 44 44 41 29 13 1 350 348 338 334 330 324 319 318 316 311 307 305 302 299 297 292 285 283 282 278
156 181 342 140 184 185 245 125 162 141 144 136 130 143 201 183 152 57 78 63 35 6 344 334 330 328 321 314 309 315 314 311 308 304 301 297 292 287 285 284 281 276 272 271
163 175 203 141 180 219 213 172 180 173 164 159 158 218 108 173 185 156 110 82 359 314 304 295 297 309 307 307 312 308 314 310 304 298 294 292 287 285 283 278 275 276 275 269
152 153 243 233 145 162 224 84 177 187 181 176 198 38 103 139 149 126 144 200 239 251 271 285 288 302 298 304 305 312 310 301 294 295 288 283 284 284 282 278 274 269 268 268
151 179 213 155 130 208 60 121 184 188 183 185 152 143 165 173 176 180 194 229 252 281 296 301 304 297 297 303 310 304 293 291 296 295 298 292 284 279 275 271 267 264 262 263
231 124 18 190 49 88 197 156 183 191 180 177 176 183 174 186 190 207 245 276 287 298 309 305 305 299 292 293 303 310 310 303 310 311 309 305 298 289 278 268 263 261 256 259
212 159 179 198 199 233 197 223 185 191 171 175 175 182 185 193 202 235 249 261 284 297 296 297 302 297 287 289 294 304 296 292 303 314 319 314 306 295 292 268 259 253 249 255
183 251 280 243 229 207 189 177 166 164 172 182 179 180 195 205 225 242 261 267 281 286 287 290 300 292 291 293 299 295 289 295 301 305 320 319 318 305 292 281 263 248 244 248
272 176 217 95 8 206 197 195 182 172 169 182 194 190 193 224 235 244 261 280 285 285 285 289 295 298 299 300 297 284 293 297 290 295 316 333 330 333 312 296 275 235 244 252
103 351 197 9 358 208 215 193 183 190 187 186 190 196 213 246 246 264 273 277 279 283 287 292 294 295 297 299 297 292 291 294 293 291 317 336 344 341 347 342 302 272 251 247
183 156 157 208 73 114 182 184 180 194 193 198 158 189 230 252 271 266 269 277 282 285 286 288 291 291 297 300 296 295 303 280 282 285 297 330 360 346 347 346 349 7 5 308
184 202 91 106 130 131 147 164 186 200 200 209 213 232 232 249 262 273 281 283 290 287 283 293 292 289 302 308 308 306 295 286 293 298 288 302 317 346 339 350 354 358 5 9
156 171 161 195 134 154 191 199 219 215 220 225 232 237 245 250 263 272 279 286 282 298 304 303 298 295 308 311 312 306 301 285 283 292 296 275 271 330 328 338 353 8 12 10
145 176 195 196 183 197 219 225 225 225 221 224 238 248 248 251 262 271 280 294 289 284 291 289 286 300 305 306 305 301 304 309 303 311 292 277 250 263 299 321 333 352 26 22
185 142 177 163 182 193 210 212 211 218 231 244 245 248 259 264 268 281 289 300 301 302 302 306 298 305 302 305 313 312 312 312 321 327 307 295 296 263 267 280 295 307 313 335
208 207 202 200 173 168 183 186 204 221 242 249 249 257 265 269 272 277 291 294 296 299 299 310 309 302 304 303 310 306 311 316 319 330 331 330 342 329 318 262 265 279 316 340
201 210 195 179 176 185 189 176 197 240 251 249 257 262 268 272 274 277 286 282 279 272 285 288 297 296 296 297 307 299 305 309 312 318 317 329 345 350 358 359 355 328 338 319
162 165 172 175 171 183 205 227 237 258 277 243 247 262 270 281 280 276 276 278 284 286 275 278 271 287 291 293 301 298 304 309 314 317 323 332 336 344 350 356 10 16 15 18
171 178 174 177 201 208 213 219 244 252 244 251 254 259 265 271 276 275 262 253 282 285 283 281 282 274 288 304 287 287 291 302 311 316 329 341 345 347 354 356 358 4 10 18
177 166 167 171 180 197 204 228 238 242 251 253 258 258 253 265 278 272 280 278 236 253 270 284 286 278 279 285 287 295 297 301 313 331 348 353 358 356 2 17 8 11 15 12
160 155 159 148 183 230 248 246 240 247 255 265 263 261 260 269 270 248 254 275 269 278 281 289 294 298 288 295 309 309 298 305 329 351 18 320 346 342 347 346 357 11 5 346
176 166 189 200 230 245 254 276 283 273 270 273 279 279 266 242 243 284 307 294 284 272 291 308 304 291 301 320 324 318 302 269 285 313 340 336 333 327 321 302 311 326 331 338
183 213 223 233 261 282 283 274 275 287 294 287 290 286 297 268 249 258 270 268 284 299 293 316 329 322 313 313 322 322 300 278 246 261 291 270 280 282 283 287 291 295 302 307
222 233 243 262 254 255 262 273 280 286 284 265 285 295 292 298 281 274 276 282 290 296 305 309 314 309 303 303 305 307 296 287 274 282 284 279 272 276 286 293 294 292 289 287